Location: Unspecified
(0.0000°N, 0.0000°E)
Time: 22:44:51
(UTC+00:00)

Hubble Space Telescope - Pass Details

Date: 03 December 2025
Orbit: 480 x 483 km, 28.5° (Epoch: 08 December)

Event Time Altitude Azimuth Distance (km) Brightness Sun altitude
Rises 18:40:34 0° 267° (W) 2,525 5.7 -11.7°
Reaches altitude 10° 18:43:17 10° 286° (WNW) 1,644 4.0 -12.3°
Maximum altitude 18:45:56 18° 331° (NNW) 1,226 2.7 -12.9°
Enters shadow 18:48:31 10° 15° (NNE) 1,622 2.9 -13.5°
